Printer-friendly version

IAU Minor Planet Center

Minor Planet Center

(3) Juno

Orbital Elements

The following orbital elements are taken from MPC 24084:
    (3) Juno
Epoch 2005 Jan. 30.0 TT = JDT 2453400.5  (M-c)          Bowell
M 300.24990              (2000.0)            P               Q
n   0.22614578     Peri.  247.86205     +0.52603091     -0.84959404
a   2.6681509      Node   170.12682     +0.83931512     +0.51129781
e   0.2584015      Incl.   12.97175     +0.13726477     +0.12947783
P   4.36           H    5.33          G   0.32
From 4741 observations at 65 oppositions, 1839-1993, mean residual 0".56.
An explanation of the orbital elements is available.

These orbital elements are also available in forms suitable for loading into a number of popular planetarium-type software programs.


Ephemeris

The following ephemeris is at intervals of five days. A daily ephemeris covering the same time interval is also available.

Personalized ephemerides for this object (and others) can be generated using the MPES.

Date    TT    R. A. (2000) Decl.     Delta      r     Elong.  Phase     V
 
2005 09 08    04 44.23   +10 02.1    1.649    1.997    94.4    30.2     9.0
2005 09 13    04 51.78   +09 32.4    1.597    1.993    97.3    30.1     8.9
2005 09 18    04 58.88   +08 59.0    1.546    1.990   100.3    29.8     8.8
2005 09 23    05 05.46   +08 21.9    1.496    1.987   103.5    29.4     8.7
2005 09 28    05 11.47   +07 41.3    1.448    1.984   106.7    28.9     8.6
2005 10 03    05 16.86   +06 57.6    1.401    1.982   110.1    28.3     8.6
2005 10 08    05 21.55   +06 11.2    1.356    1.981   113.6    27.5     8.5
2005 10 13    05 25.52   +05 22.5    1.313    1.980   117.2    26.6     8.4
2005 10 18    05 28.70   +04 32.2    1.273    1.979   120.9    25.6     8.3
2005 10 23    05 31.06   +03 40.9    1.235    1.979   124.8    24.4     8.2
2005 10 28    05 32.55   +02 49.4    1.199    1.979   128.7    23.0     8.1
2005 11 02    05 33.14   +01 58.6    1.168    1.980   132.8    21.6     8.0
2005 11 07    05 32.85   +01 09.8    1.139    1.982   136.8    20.0     7.9
2005 11 12    05 31.69   +00 24.1    1.115    1.984   140.9    18.4     7.8
2005 11 17    05 29.72   -00 17.3    1.095    1.986   144.7    16.7     7.7
2005 11 22    05 27.01   -00 53.1    1.079    1.989   148.3    15.1     7.7
2005 11 27    05 23.69   -01 22.3    1.069    1.992   151.4    13.7     7.6
2005 12 02    05 19.89   -01 43.6    1.064    1.996   153.7    12.6     7.6
2005 12 07    05 15.80   -01 56.3    1.064    2.000   154.9    12.0     7.5
2005 12 12    05 11.61   -01 59.9    1.069    2.005   154.9    12.0     7.6
2005 12 17    05 07.52   -01 54.4    1.080    2.010   153.6    12.6     7.6
2005 12 22    05 03.70   -01 40.0    1.096    2.015   151.3    13.5     7.7
2005 12 27    05 00.32   -01 17.3    1.118    2.021   148.2    14.8     7.8

Back to Bright Minor Planets

Astronomical Headlines Index

MPC


Valid HTML 4.01!